Location: アルンシュタイン
(50.0000°N, 10.0000°E)
Time: 02:25:23
(UTC+02:00)

Tiros 1 despin weight - Pass Details

Date: 12 September 2024
Orbit: 573 x 615 km, 48.2° (Epoch: 04 October)

Event Time Altitude Azimuth Distance (km) Brightness Sun altitude
Exits shadow 05:20:49 11° 193° (SSW) 1,942 ? -14.8°
Maximum altitude 05:24:08 21° 145° (SE) 1,386 ? -14.3°
Drops below altitude 10° 05:27:34 10° 95° (E) 1,985 ? -13.8°
Sets 05:30:19 0° 80° (E) 2,893 ? -13.4°
